Regional Weather Roundup
Issued by NWS

Home | Current Version | Previous Version | Graphics & Text | Print | Product List | Glossary On
Versions: 1 2 3 4 5 6 7 8 9 10 11 12 13 14 15 16 17 18 19 20 21 22 23 24 25 26 27 28 29 30 31 32 33 34 35 36 37 38 39 40 41 42 43 44 45 46 47 48 49 50
000
ASUS45 KTFX 012019
RWRMT
MONTANA HOURLY WEATHER ROUNDUP
NATIONAL WEATHER SERVICE GREAT FALLS MT
219 PM MDT WED APR 1 2015

NOTE: "FAIR" INDICATES FEW OR NO CLOUDS BELOW 12000 FEET WITH NO
SIGNIFICANT WEATHER AND/OR OBSTRUCTIONS TO VISIBILITY.

* THESE STATIONS ARE NOT UNDER NWS QUALITY CONTROL. THEY DO NOT
   REPORT WEATHER SUCH AS PRECIPITATION OR FOG.

MTZ001>007-043-012100-
WEST OF THE DIVIDE
CITY           SKY/WX    TMP DP  RH WIND       PRES   REMARKS
KALISPELL      PTSUNNY   46  12  25 W15G26    29.94S
MISSOULA       PTSUNNY   41  25  53 N8        30.04F
BUTTE          CLOUDY    34  16  48 W13G25    29.96S WCI  25
MULLAN PASS    LGT SNOW  27  23  85 N/A       29.98F VSB 1 1/4
* ESSEX        N/A       38  23  55 E6         N/A   WCI  33
* EUREKA APT   PTSUNNY   46  19  34 SW10G20   29.95F
* HAMILTON APT PTCLDY    43  27  53 S14       30.04F
* LIBBY APT    PTCLDY    46  16  30 W9        30.01F
* LINCOLN      N/A       41  15  35 W11G24     N/A
* LOOKOUT PASS N/A       34  23  64 SE4G12     N/A
* POLSON       N/A       45  20  37 S4G10      N/A
* RONAN APT    PTCLDY    43  21  42 S14G21     N/A
* SEELEY LAKE  N/A       41  18  39 W9G21      N/A
* THOMP F APT  PTCLDY    31  17  56 SW11G21    N/A   WCI  22
$$

MTZ008-052>055-012100-
SOUTHWEST MONTANA
CITY           SKY/WX    TMP DP  RH WIND       PRES   REMARKS
BOZEMAN        CLOUDY    41  18  39 W15G32    29.92F
DILLON         PTSUNNY   45   9  23 W23G36    29.95F
* W YELLOWSTON PTSUNNY   34  16  48 SW5G13     N/A   WCI  29
* THREE FORKS  PTSUNNY   43  18  37 SW20G30    N/A
* TWIN BRIDGES PTSUNNY   45   5  19 SW8        N/A
* BOULDER HILL N/A       37  11  34 S26G39     N/A   WCI  25
* HOMESTAKE PS N/A       29  10  45 W8G18      N/A   WCI  21
* MONIDA PASS  N/A       34   1  24 W19G31     N/A   WCI  23
* RAYNOLDS PAS N/A       32  20  61 SW9G14     N/A   WCI  24
* WHITEHALL    N/A       40  15  36 W8G14      N/A   WCI  35
* WISE RIVER   N/A       30  22  72 W8G30      N/A   WCI  22
$$

MTZ009>010-012-014-046-048-049-054-012100-
EAST SLOPES AND CENTRAL MONTANA
CITY           SKY/WX    TMP DP  RH WIND       PRES   REMARKS
CUT BANK       PTCLDY    46  12  25 W35G49    29.77S
GREAT FALLS    PTSUNNY   50   7  17 W21G36    29.83R
HELENA         PTCLDY    46  10  23 NW29G41   29.91F
MALMSTROM AFB  PTSUNNY   50   5  16 W23G32    29.84S
* DEARBORN     N/A       47  11  23 SE16G26    N/A
* EAST GLACIER N/A       35  18  50 W16G35     N/A   WCI  25
* MONARCH      N/A       40  12  32 W19G35     N/A   WCI  31
* PENDROY      N/A       43  14  31 W34G45     N/A
* ROGERS PASS  N/A       37   8  30 SE11G29    N/A   WCI  29
* SAINT MARY   N/A       37  21  52 SW10G22    N/A   WCI  30
* SWEET GRASS  N/A       45   7  21 NW34G48    N/A
$$

MTZ011-013-016-021-035-040-045-047-050-051-012100-
NORTH CENTRAL MONTANA
CITY           SKY/WX    TMP DP  RH WIND       PRES   REMARKS
HAVRE          CLOUDY    48  19  32 W17G30    29.75F
LEWISTOWN      PTSUNNY   48  14  25 W29G35    29.80F
* N BAR RANCH  PTSUNNY   43  12  28 NW20G35   29.81S
* CHINOOK      PTCLDY    46  30  54 SW8       29.75F
* FORT BENTON  PTSUNNY   52   9  17 W25G40    29.81F
* MALTA APT    PTSUNNY   43  30  60 W15G23     N/A
* CHESTER      N/A       47   8  20 NW22G37    N/A
* DENTON       N/A       47  16  29 W27G44     N/A
* GEYSER       N/A       44  14  30 W26G36     N/A
* JUDITH GAP   N/A       45   9  23 W18G32     N/A
* LOMA         N/A       50   9  19 SW28G40    N/A
$$

MTZ017>020-022>027-061-062-012100-
NORTHEAST MONTANA
CITY           SKY/WX    TMP DP  RH WIND       PRES   REMARKS
GLASGOW        PTCLDY    48  30  50 W29G37    29.73R
GLENDIVE       PTCLDY    54  23  30 W26G35    29.73R
JORDAN         SUNNY     52  18  26 W28G39    29.75F
SIDNEY         SUNNY     55  25  31 W28G35    29.68R
WOLF POINT     CLOUDY    54  25  33 NW26G33   29.70S
* BEAVER HILL  N/A       51  24  35 W27G38     N/A
* CIRCLE       N/A       51  29  43 W13G28     N/A
* LINDSAY DVD  N/A       49  22  35 W25G35     N/A
* NAVAJO       N/A       48  22  36 NW26G40    N/A
* PLENTYWOOD A PTCLDY    52  21  30 W26G38    29.62R
* POPLAR APT   PTCLDY    52  25  35 W22G30    29.69S
* SACO         N/A       45  32  60 W19G29     N/A
$$

MTZ028>042-056>058-012100-
SOUTHCENTRAL AND SOUTHEAST MONTANA
CITY           SKY/WX    TMP DP  RH WIND       PRES   REMARKS
BAKER          PTSUNNY   54  21  27 NW24G46   29.74R
BILLINGS       PTCLDY    54   9  16 NW23G36   29.85S
LIVINGSTON     PTSUNNY   46  12  25 W28G43    29.89S
MILES CITY     PTCLDY    63  12  13 W30G41    29.77S
* BIG TIMBER A PTCLDY    43  16  34 W24G37    29.89S
* FORSYTH APT  PTCLDY    54  10  17 W24G35    29.79F VSB 3/4
* LAUREL APT   PTCLDY    52  12  20 W21G36     N/A
* ROUNDUP APT  PTCLDY    48   9  20 W15G25     N/A
* ALZADA       N/A       49  24  38 W15G22     N/A
* HYSHAM       N/A       50  15  25 W21G29     N/A
* LAME DEER    N/A       45  13  27 NW11G23    N/A
* REED POINT   N/A       49  20  32 W29G37     N/A
* ROSCOE HILL  N/A       45  -1  14 SW9G21     N/A
$$

REGIONAL REPORTS...DAKOTAS
CITY           SKY/WX    TMP DP  RH WIND       PRES   REMARKS
WILLISTON      PTSUNNY   54  28  37 NW25G31   29.64R
DICKINSON      PTCLDY    55  27  34 NW32G41   29.63R
BEACH          PTCLDY    54  23  30 NW29G41   29.71S
CROSBY         SUNNY     50  28  43 NW28G37   29.59S
TIOGA          SUNNY     54  27  35 NW26G39   29.62R
WATFORD CITY   PTCLDY    54  28  37 NW23G38   29.62R
BISMARCK       PTSUNNY   64  27  25 NW25G35   29.57S
GRAND FORKS    PTSUNNY   64  37  37 W17       29.34R
FARGO          PTSUNNY   72  34  25 W25G32    29.35S
BUFFALO SD     PTCLDY    55  16  21 W41G47    29.66S
RAPID CITY     PTCLDY    54  30  40 N37G48    29.71S
$$

REGIONAL REPORTS...WYOMING/IDAHO/WASHINGTON
CITY           SKY/WX    TMP DP  RH WIND       PRES   REMARKS
GILLETTE       CLOUDY    45  25  45 N9        29.85S
SHERIDAN       PTSUNNY   48  16  28 NW24G29   29.84F
CODY           PTCLDY    46   9  22 W17G26    29.88F
YELLOWSTONE LA PTSUNNY   28   9  45 W8        29.94F WCI  20
SALMON         PTSUNNY   43  21  42 NE9G18    30.00F
MULLAN PASS    LGT SNOW  27  23  85 N/A       29.98S VSB 1 1/4
SAND POINT     CLOUDY    45  27  49 SW12G22   30.05F
SPOKANE        PTSUNNY   46  28  50 SW16      30.08F
$$

REGIONAL REPORTS...ALBERTA
CITY           SKY/WX    TMP DP  RH WIND       PRES   REMARKS
CALGARY        CLOUDY    46   1  15 NW22G38   29.67R
LETHBRIDGE     PTSUNNY   48  10  21 W30G43    29.72S
MEDICINE HAT   PTSUNNY   54  12  19 W24G40    29.65F
EDMONTON       LGT SNOW  32  30  92 NW23G30   29.66R VSB 3/4  WCI  19
WATERTON GATE  N/A       39  14  36 W21G36     N/A   WCI  29
CARDSTON       N/A       45  14  28 W25G40     N/A
MILK RIVER     N/A       46   9  22 W32G45     N/A
$$

REGIONAL REPORTS...SASKATCHEWAN
CITY           SKY/WX    TMP DP  RH WIND       PRES   REMARKS
SWIFT CURRENT  CLOUDY    43  28  56 W33G44    29.59F
MOOSE JAW      PTSUNNY   50  27  41 W29G36    29.56F
REGINA         PTSUNNY   48  32  54 NW28G39   29.54S
VAL MARIE      N/A       48  25  41 W25G33     N/A
ASSINIBOIA     N/A       48  21  34 W29G39     N/A
CORONACH       N/A       48  18  30 W24G32     N/A

$$



USA.gov is the U.S. government's official web portal to all federal, state and local government web resources and services.